Date String (YYYY-MM-DD hh:mm:ss) UTC,Instrument flags,absolute air pressure of the measurement (hPa),sample flow rate (lpm),inlet stack bypass flow (lpm),air temperature of the measurement (°C),ambient temperature measured by the external sensor (°C),aerosol sample conditioner tube jacket temperature (°C),OPC LED temperature (°C),internal box temperature (°C),relative humidity of the measurement (%),span deviation,mass concentration of particles derived from Lorenz-Mie calculation of OPC scattering (μg/m³),mass concentration of particles derived from Lorenz-Mie calculation of OPC scattering (μg/m³),mass concentration of particles derived from Lorenz-Mie calculation of OPC scattering (μg/m³)
DateTimeUTC,F1_M11,P_M11,Q1_M11,Q2_M11,T1_M11,T2_M11,T3_M11,T4_M11,T5_M11,U1_M11,ZSPAN_M11,X0_M11,X2_M11,X1_M11
2023-07-15 17:00:00,SystemResetWarning,0836.6,5.00,000.00,029.1,025.7,000.0,037.3,030.6,32.3,0000.0,0011.98,0005.20,0004.53
2023-07-15 17:01:00,SystemResetWarning,0836.6,5.00,000.00,029.0,025.0,000.0,037.2,030.4,32.7,0000.0,0011.70,0005.18,0004.52
2023-07-15 17:02:00,SystemResetWarning,0836.6,5.01,000.00,028.9,025.2,000.0,037.2,030.3,33.5,0000.0,0011.09,0005.18,0004.51
2023-07-15 17:03:00,SystemResetWarning,0836.6,5.00,000.00,028.9,025.6,000.0,037.3,030.2,33.1,0000.0,0011.18,0005.19,0004.52
2023-07-15 17:04:00,SystemResetWarning,0836.6,4.99,000.00,028.9,026.0,000.0,037.3,030.3,32.6,0000.0,0011.67,0005.24,0004.54
2023-07-15 17:05:00,SystemResetWarning,0836.6,5.00,000.00,028.9,026.4,000.0,037.3,030.4,32.5,0000.0,0012.10,0005.23,0004.54
2023-07-15 17:06:00,SystemResetWarning,0836.6,5.01,000.00,028.9,026.8,000.0,037.3,030.5,32.7,0000.0,0012.94,0005.21,0004.55
2023-07-15 17:07:00,SystemResetWarning,0836.6,5.00,000.00,028.9,027.1,000.0,037.4,030.6,32.4,0000.0,0013.12,0005.20,0004.55
2023-07-15 17:08:00,SystemResetWarning,0836.6,4.99,000.00,029.0,027.4,000.0,037.4,030.6,32.5,0000.0,0013.19,0005.22,0004.56
2023-07-15 17:09:00,SystemResetWarning,0836.6,4.99,000.00,029.0,027.6,000.0,037.4,030.7,32.7,0000.0,0013.35,0005.24,0004.55
2023-07-15 17:10:00,SystemResetWarning,0836.5,5.01,000.00,029.1,027.7,000.0,037.4,030.8,32.2,0000.0,0012.29,0005.20,0004.55
2023-07-15 17:11:00,SystemResetWarning,0836.5,4.99,000.00,029.1,026.7,000.0,037.3,030.7,32.8,0000.0,0011.80,0005.18,0004.54
2023-07-15 17:12:00,SystemResetWarning,0836.5,5.01,000.00,029.0,025.2,000.0,037.2,030.5,32.4,0000.0,0012.09,0005.18,0004.53
2023-07-15 17:13:00,SystemResetWarning,0836.4,5.01,000.00,028.9,024.9,000.0,037.1,030.3,33.0,0000.0,0012.05,0005.16,0004.53
2023-07-15 17:14:00,SystemResetWarning,0836.5,5.00,000.00,028.8,025.2,000.0,037.2,030.1,33.8,0000.0,0012.43,0005.20,0004.52
2023-07-15 17:15:00,SystemResetWarning,0836.5,5.00,000.00,028.8,025.6,000.0,037.2,030.2,34.0,0000.0,0012.30,0005.16,0004.51
2023-07-15 17:16:00,SystemResetWarning,0836.4,5.00,000.00,028.8,026.0,000.0,037.3,030.3,34.9,0000.0,0011.81,0005.15,0004.51
2023-07-15 17:17:00,SystemResetWarning,0836.5,5.00,000.00,028.9,026.5,000.0,037.3,030.4,34.5,0000.4,0011.28,0005.19,0004.52
2023-07-15 17:18:00,SystemResetWarning,0836.5,4.99,000.00,029.0,026.8,000.0,037.3,030.5,34.6,0000.0,0011.14,0005.22,0004.54
2023-07-15 17:19:00,SystemResetWarning,0836.5,5.01,000.00,029.1,027.1,000.0,037.3,030.6,33.1,0000.0,0011.09,0005.23,0004.57
2023-07-15 17:20:00,SystemResetWarning,0836.5,4.98,000.00,029.2,027.4,000.0,037.4,030.7,32.2,0000.8,0012.13,0005.27,0004.61
2023-07-15 17:21:00,SystemResetWarning,0836.6,5.01,000.00,029.3,027.6,000.0,037.4,030.7,32.2,0001.6,0012.24,0005.32,0004.63
2023-07-15 17:22:00,SystemResetWarning,0836.5,5.01,000.00,029.4,027.8,000.0,037.4,030.8,32.1,0000.7,0012.17,0005.33,0004.65
2023-07-15 17:23:00,SystemResetWarning,0836.5,4.98,000.00,029.4,027.2,000.0,037.4,030.8,32.1,-000.9,0011.93,0005.33,0004.67
2023-07-15 17:24:00,SystemResetWarning,0836.5,4.99,000.00,029.4,025.6,000.0,037.3,030.5,32.6,-000.5,0012.49,0005.35,0004.67
2023-07-15 17:25:00,SystemResetWarning,0836.5,5.01,000.00,029.3,025.0,000.0,037.3,030.4,32.5,0000.0,0012.44,0005.33,0004.68
2023-07-15 17:26:00,SystemResetWarning,0836.5,5.00,000.00,029.2,025.1,000.0,037.3,030.2,31.9,0000.0,0012.64,0005.32,0004.69
2023-07-15 17:27:00,SystemResetWarning,0836.5,5.00,000.00,029.2,025.5,000.0,037.3,030.2,32.1,0000.0,0013.01,0005.36,0004.70
2023-07-15 17:28:00,SystemResetWarning,0836.5,5.00,000.00,029.1,026.0,000.0,037.4,030.3,32.2,0000.0,0013.07,0005.37,0004.70
2023-07-15 17:29:00,SystemResetWarning,0836.5,5.00,000.00,029.1,026.4,000.0,037.4,030.4,32.4,0000.0,0013.05,0005.35,0004.70
2023-07-15 17:30:00,SystemResetWarning,0836.5,5.01,000.00,029.2,026.8,000.0,037.4,030.5,33.6,0000.0,0013.16,0005.40,0004.70
2023-07-15 17:31:00,SystemResetWarning,0836.5,4.99,000.00,029.2,027.1,000.0,037.5,030.6,33.0,0000.0,0011.94,0005.43,0004.70
2023-07-15 17:32:00,SystemResetWarning,0836.5,5.00,000.00,029.2,027.4,000.0,037.5,030.6,33.1,0000.0,0012.57,0005.42,0004.72
2023-07-15 17:33:00,SystemResetWarning,0836.5,5.01,000.00,029.3,027.6,000.0,037.5,030.7,33.2,0000.0,0013.62,0005.42,0004.72
2023-07-15 17:34:00,SystemResetWarning,0836.5,5.01,000.00,029.3,027.7,000.0,037.5,030.8,32.7,0000.0,0013.68,0005.44,0004.73
2023-07-15 17:35:00,SystemResetWarning,0836.5,4.99,000.00,029.3,026.7,000.0,037.4,030.7,33.3,0000.0,0012.86,0005.44,0004.75
2023-07-15 17:36:00,SystemResetWarning,0836.5,5.00,000.00,029.3,025.9,000.0,037.4,030.5,32.9,0000.0,0012.51,0005.45,0004.76
2023-07-15 17:37:00,SystemResetWarning,0836.4,5.02,000.00,029.2,025.9,000.0,037.4,030.4,32.6,0000.3,0011.97,0005.49,0004.78
2023-07-15 17:38:00,SystemResetWarning,0836.4,5.00,000.00,029.2,026.2,000.0,037.4,030.4,32.4,0002.1,0011.66,0005.52,0004.81
2023-07-15 17:39:00,SystemResetWarning,0836.4,5.00,000.00,029.2,026.6,000.0,037.5,030.5,32.6,0000.0,0011.76,0005.50,0004.81
2023-07-15 17:40:00,SystemResetWarning,0836.4,5.00,000.00,029.2,026.9,000.0,037.5,030.6,32.9,0000.0,0011.92,0005.51,0004.80
2023-07-15 17:41:00,SystemResetWarning,0836.4,5.00,000.00,029.2,027.2,000.0,037.5,030.7,32.9,0001.0,0011.77,0005.47,0004.81
2023-07-15 17:42:00,SystemResetWarning,0836.4,5.00,000.00,029.2,027.5,000.0,037.5,030.7,33.3,0001.8,0011.69,0005.41,0004.79
2023-07-15 17:43:00,SystemResetWarning,0836.4,5.00,000.00,029.3,027.7,000.0,037.5,030.8,33.1,0000.0,0011.31,0005.39,0004.78
2023-07-15 17:44:00,SystemResetWarning,0836.4,4.99,000.00,029.3,026.8,000.0,037.5,030.7,32.9,0000.0,0010.33,0005.39,0004.79
2023-07-15 17:45:00,SystemResetWarning,0836.4,5.00,000.00,029.2,025.3,000.0,037.4,030.5,32.9,0000.7,0010.97,0005.39,0004.79
2023-07-15 17:46:00,SystemResetWarning,0836.4,5.00,000.00,029.2,025.0,000.0,037.3,030.4,33.0,0000.0,0011.13,0005.39,0004.80
2023-07-15 17:47:00,SystemResetWarning,0836.4,5.01,000.00,029.1,025.2,000.0,037.3,030.2,32.8,0001.2,0011.96,0005.39,0004.82
2023-07-15 17:48:00,SystemResetWarning,0836.4,5.02,000.00,029.0,025.6,000.0,037.4,030.2,33.0,0000.0,0012.58,0005.39,0004.83
2023-07-15 17:49:00,SystemResetWarning,0836.4,4.99,000.00,029.0,026.1,000.0,037.4,030.3,33.7,0000.0,0012.80,0005.37,0004.82
2023-07-15 17:50:00,SystemResetWarning,0836.4,5.00,000.00,029.0,026.5,000.0,037.4,030.4,33.0,0000.0,0012.53,0005.38,0004.83
2023-07-15 17:51:00,SystemResetWarning,0836.4,5.00,000.00,029.0,026.8,000.0,037.4,030.5,33.0,0000.0,0012.42,0005.43,0004.86
2023-07-15 17:52:00,SystemResetWarning,0836.4,5.01,000.00,029.1,027.2,000.0,037.4,030.6,33.3,0000.0,0012.65,0005.46,0004.88
2023-07-15 17:53:00,SystemResetWarning,0836.4,4.99,000.00,029.1,027.4,000.0,037.5,030.7,33.1,0000.0,0012.53,0005.46,0004.89
2023-07-15 17:54:00,SystemResetWarning,0836.4,4.99,000.00,029.1,027.7,000.0,037.5,030.7,32.6,0000.0,0012.08,0005.46,0004.90
2023-07-15 17:55:00,SystemResetWarning,0836.4,5.00,000.00,029.2,027.7,000.0,037.5,030.8,33.4,0000.0,0012.62,0005.49,0004.90
2023-07-15 17:56:00,SystemResetWarning,0836.4,5.00,000.00,029.2,026.4,000.0,037.4,030.6,33.7,0000.0,0012.05,0005.49,0004.91
2023-07-15 17:57:00,SystemResetWarning,0836.3,5.00,000.00,029.1,025.2,000.0,037.3,030.4,34.8,0000.0,0011.74,0005.48,0004.91
2023-07-15 17:58:00,SystemResetWarning,0836.3,5.02,000.00,029.1,025.0,000.0,037.2,030.2,33.0,0000.0,0011.34,0005.50,0004.91
2023-07-15 17:59:00,SystemResetWarning,0836.2,4.98,000.00,029.0,025.3,000.0,037.3,030.2,33.4,0000.0,0010.72,0005.49,0004.91
